Little C — WCX810 — position and weather

sailwx.info

Track history (hours):
 
Tides and Currents Weather Stations Pressure Air Temp Water Temp Dewpoint Dewpoint Depression Visibility Wind Speed Wind Dir Waves Ship Positions

Little C

Last reported at 2018-Jun-19 17:38 UTC. Time now 2018-Jun-22 13:25 UTC.
Position N 40°43' W 074°03'.

Type: Tug. MMSI: 367308350.

Date/timePositionNaut miles runAvg speedWind from/ knotsBaromVisibWave heightAir tempDewpointWater temp
2018-Jun-19 17:38N 40°43' W 074°03'0 0.0
2018-Jun-19 17:30N 40°43' W 074°03'1 1.2
2018-Jun-19 17:00N 40°43' W 074°02'2 4.3
2018-Jun-19 16:30N 40°41' W 074°03'2 4.7
2018-Jun-19 16:00N 40°39' W 074°05'2 3.7
2018-Jun-19 15:30N 40°39' W 074°08'1 2.5
2018-Jun-19 15:00N 40°38' W 074°09'1 2.2
2018-Jun-19 14:30N 40°39' W 074°09'0 0.3
2018-Jun-19 14:00N 40°40' W 074°09'0 0.0
2018-Jun-19 13:30N 40°40' W 074°09'0 0.0
2018-Jun-19 13:00N 40°40' W 074°09'0 0.0
2018-Jun-19 12:30N 40°40' W 074°09'0 0.0
2018-Jun-19 12:00N 40°40' W 074°09'0 0.1
2018-Jun-19 11:30N 40°40' W 074°09'1 1.9
2018-Jun-19 11:00N 40°39' W 074°09'0 0.0
2018-Jun-18 16:49N 40°38' W 074°09'1 4.1
2018-Jun-18 16:30N 40°40' W 074°09'0 0.0
2018-Jun-18 16:00N 40°40' W 074°09'0 0.0
2018-Jun-18 15:30N 40°40' W 074°09'0 0.0
2018-Jun-18 15:00N 40°40' W 074°09'0 0.0
2018-Jun-18 14:30N 40°40' W 074°09'0 0.0
2018-Jun-18 14:00N 40°40' W 074°09'0 0.0
2018-Jun-18 13:30N 40°40' W 074°09'0 0.1
2018-Jun-18 13:00N 40°40' W 074°09'0 0.0
2018-Jun-18 12:30N 40°40' W 074°09'0 0.0
2018-Jun-18 12:00N 40°40' W 074°09'0 0.0
2018-Jun-18 11:30N 40°40' W 074°09'0 0.7
2018-Jun-18 11:00N 40°40' W 074°09'0 0.1
2018-Jun-18 10:30N 40°40' W 074°09'1 2.6
2018-Jun-18 10:00N 40°38' W 074°09'  
2018-Jun-15 17:49N 40°38' W 074°09'1 4.1
2018-Jun-15 17:30N 40°40' W 074°09'0 0.7
2018-Jun-15 17:00N 40°40' W 074°09'0 0.0
2018-Jun-15 16:30N 40°40' W 074°09'0 0.0
2018-Jun-15 16:00N 40°40' W 074°09'0 0.0
2018-Jun-15 15:30N 40°40' W 074°09'0 0.0
2018-Jun-15 15:00N 40°40' W 074°09'0 0.0
2018-Jun-15 14:30N 40°40' W 074°09'0 0.0
2018-Jun-15 14:00N 40°40' W 074°09'0 0.0
2018-Jun-15 13:30N 40°40' W 074°09'0 0.0
2018-Jun-15 13:00N 40°40' W 074°09'0 0.1
2018-Jun-15 12:30N 40°40' W 074°09'0 0.1
2018-Jun-15 12:00N 40°40' W 074°09'1 1.0
2018-Jun-15 11:27N 40°39' W 074°09'1 1.3
2018-Jun-15 11:00N 40°40' W 074°09'0 0.0
2018-Jun-15 10:31N 40°40' W 074°09'1 0.1
2018-Jun-14 18:47N 40°38' W 074°09'1 4.5
2018-Jun-14 18:31N 40°40' W 074°09'0 0.0
2018-Jun-14 18:00N 40°40' W 074°09'0 0.0
2018-Jun-14 17:30N 40°40' W 074°09'0 0.0
2018-Jun-14 17:00N 40°40' W 074°09'0 0.0
2018-Jun-14 16:30N 40°40' W 074°09'0 0.0
2018-Jun-14 16:01N 40°40' W 074°09'1 2.5
2018-Jun-14 15:31N 40°38' W 074°09'0 0.0
2018-Jun-14 15:00N 40°38' W 074°09'1 2.5
2018-Jun-14 14:31N 40°40' W 074°09'0 0.0
2018-Jun-14 14:01N 40°40' W 074°09'1 1.2
2018-Jun-14 13:30N 40°39' W 074°09'2 3.8
2018-Jun-14 13:00N 40°39' W 074°06'2 4.1
2018-Jun-14 12:31N 40°40' W 074°04'2 3.5
2018-Jun-14 12:01N 40°41' W 074°03'1 3.0
2018-Jun-14 11:31N 40°43' W 074°02'0 0.9
2018-Jun-14 11:00N 40°43' W 074°03'0 0.0
2018-Jun-14 10:30N 40°43' W 074°03'0 0.0
2018-Jun-13 14:48N 40°43' W 074°03'0 0.1
2018-Jun-13 14:31N 40°43' W 074°03'0 0.0
2018-Jun-13 14:00N 40°43' W 074°03'0 0.1
2018-Jun-13 13:31N 40°43' W 074°03'0 0.0
2018-Jun-13 13:00N 40°43' W 074°03'0 0.0
2018-Jun-13 12:30N 40°43' W 074°03'0 0.0
2018-Jun-13 12:01N 40°43' W 074°03'  
Track history (hours):
 
Tides and Currents Weather Stations Pressure Air Temp Water Temp Dewpoint Dewpoint Depression Visibility Wind Speed Wind Dir Waves Ship Positions

Little C

Last reported at 2018-Jun-19 17:38 UTC. Time now 2018-Jun-22 13:25 UTC.
Position N 40°43' W 074°03'.

Type: Tug. MMSI: 367308350.

Date/timePositionNaut miles runAvg speedWind from/ knotsBaromVisibWave heightAir tempDewpointWater temp
2018-Jun-19 17:38N 40°43' W 074°03'0 0.0
2018-Jun-19 17:30N 40°43' W 074°03'1 1.2
2018-Jun-19 17:00N 40°43' W 074°02'2 4.3
2018-Jun-19 16:30N 40°41' W 074°03'2 4.7
2018-Jun-19 16:00N 40°39' W 074°05'2 3.7
2018-Jun-19 15:30N 40°39' W 074°08'1 2.5
2018-Jun-19 15:00N 40°38' W 074°09'1 2.2
2018-Jun-19 14:30N 40°39' W 074°09'0 0.3
2018-Jun-19 14:00N 40°40' W 074°09'0 0.0
2018-Jun-19 13:30N 40°40' W 074°09'0 0.0
2018-Jun-19 13:00N 40°40' W 074°09'0 0.0
2018-Jun-19 12:30N 40°40' W 074°09'0 0.0
2018-Jun-19 12:00N 40°40' W 074°09'0 0.1
2018-Jun-19 11:30N 40°40' W 074°09'1 1.9
2018-Jun-19 11:00N 40°39' W 074°09'0 0.0
2018-Jun-18 16:49N 40°38' W 074°09'1 4.1
2018-Jun-18 16:30N 40°40' W 074°09'0 0.0
2018-Jun-18 16:00N 40°40' W 074°09'0 0.0
2018-Jun-18 15:30N 40°40' W 074°09'0 0.0
2018-Jun-18 15:00N 40°40' W 074°09'0 0.0
2018-Jun-18 14:30N 40°40' W 074°09'0 0.0
2018-Jun-18 14:00N 40°40' W 074°09'0 0.0
2018-Jun-18 13:30N 40°40' W 074°09'0 0.1
2018-Jun-18 13:00N 40°40' W 074°09'0 0.0
2018-Jun-18 12:30N 40°40' W 074°09'0 0.0
2018-Jun-18 12:00N 40°40' W 074°09'0 0.0
2018-Jun-18 11:30N 40°40' W 074°09'0 0.7
2018-Jun-18 11:00N 40°40' W 074°09'0 0.1
2018-Jun-18 10:30N 40°40' W 074°09'1 2.6
2018-Jun-18 10:00N 40°38' W 074°09'  
2018-Jun-15 17:49N 40°38' W 074°09'1 4.1
2018-Jun-15 17:30N 40°40' W 074°09'0 0.7
2018-Jun-15 17:00N 40°40' W 074°09'0 0.0
2018-Jun-15 16:30N 40°40' W 074°09'0 0.0
2018-Jun-15 16:00N 40°40' W 074°09'0 0.0
2018-Jun-15 15:30N 40°40' W 074°09'0 0.0
2018-Jun-15 15:00N 40°40' W 074°09'0 0.0
2018-Jun-15 14:30N 40°40' W 074°09'0 0.0
2018-Jun-15 14:00N 40°40' W 074°09'0 0.0
2018-Jun-15 13:30N 40°40' W 074°09'0 0.0
2018-Jun-15 13:00N 40°40' W 074°09'0 0.1
2018-Jun-15 12:30N 40°40' W 074°09'0 0.1
2018-Jun-15 12:00N 40°40' W 074°09'1 1.0
2018-Jun-15 11:27N 40°39' W 074°09'1 1.3
2018-Jun-15 11:00N 40°40' W 074°09'0 0.0
2018-Jun-15 10:31N 40°40' W 074°09'1 0.1
2018-Jun-14 18:47N 40°38' W 074°09'1 4.5
2018-Jun-14 18:31N 40°40' W 074°09'0 0.0
2018-Jun-14 18:00N 40°40' W 074°09'0 0.0
2018-Jun-14 17:30N 40°40' W 074°09'0 0.0
2018-Jun-14 17:00N 40°40' W 074°09'0 0.0
2018-Jun-14 16:30N 40°40' W 074°09'0 0.0
2018-Jun-14 16:01N 40°40' W 074°09'1 2.5
2018-Jun-14 15:31N 40°38' W 074°09'0 0.0
2018-Jun-14 15:00N 40°38' W 074°09'1 2.5
2018-Jun-14 14:31N 40°40' W 074°09'0 0.0
2018-Jun-14 14:01N 40°40' W 074°09'1 1.2
2018-Jun-14 13:30N 40°39' W 074°09'2 3.8
2018-Jun-14 13:00N 40°39' W 074°06'2 4.1
2018-Jun-14 12:31N 40°40' W 074°04'2 3.5
2018-Jun-14 12:01N 40°41' W 074°03'1 3.0
2018-Jun-14 11:31N 40°43' W 074°02'0 0.9
2018-Jun-14 11:00N 40°43' W 074°03'0 0.0
2018-Jun-14 10:30N 40°43' W 074°03'0 0.0
2018-Jun-13 14:48N 40°43' W 074°03'0 0.1
2018-Jun-13 14:31N 40°43' W 074°03'0 0.0
2018-Jun-13 14:00N 40°43' W 074°03'0 0.1
2018-Jun-13 13:31N 40°43' W 074°03'0 0.0
2018-Jun-13 13:00N 40°43' W 074°03'0 0.0
2018-Jun-13 12:30N 40°43' W 074°03'0 0.0
2018-Jun-13 12:01N 40°43' W 074°03'  

Dump ship's entire track history